Find Starlink 31137

NORAD ID: 58686 Int'l Des: 2023-211 Owner: SPXS Country: US Constellation: starlink operational
LEOCIRCULAR

リアルタイム位置

3D地球を読み込み中...

Starlink 31137について

説明を読み込み中...

次回通過

Passes for default location (London). Set your location on the main map for personalized predictions.

高度履歴

Loading altitude history...

軌道要素

1 58686U 23211V 26132.57384575 .00000180 00000-0 16073-4 0 9990
2 58686 43.0034 84.5990 0000890 274.9890 85.0860 15.27575157132233
Epoch: May 12, 2026 • Age: 12 hours

現在のステータス

高度 494.8 km
速度 7.62 km/s
衛星直下点 -40.46°S, 68.55°E
打ち上げ日 Dec 29, 2023
運用期間 2.3 years
タイプ internet

技術仕様

分類 Payload
質量 730.00 kg
乾燥質量 700.00 kg
総質量 730.00 kg
長さ 0.30 m
直径 4.10 m
スパン 29.00 m
形状 Box + pan
製造者 SPXS
バスタイプ Starlink V2M
フェーズステータス In Orbit
所有者/国 SPXS/US

Most Searched